VK3CG Weather Reports


Display with metric or nautical units.
time (UTC)temp
F
wind
direction
speed
MPH
gust
MPH
rain 1hr
in
rain 24hr
in
rain mn
in
humidity
%
barometer
mb
20260504050128 55 5 2.0 7.0 0.00 0.01 0.00 65 1021.5
20260504044558 55 360 2.0 10.0 0.00 0.01 0.00 63 1021.4
20260504043100 55 29 2.0 9.0 0.00 0.01 0.00 63 1021.2
20260504041554 55 41 5.0 9.0 0.00 0.01 0.00 63 1021.3
20260504034553 54 31 3.0 6.0 0.00 0.06 0.00 63 1021.6
20260504033049 55 34 3.0 6.0 0.00 0.06 0.00 62 1021.9
20260504031605 54 30 3.0 6.0 0.00 0.06 0.00 62 1022.1
20260504030047 54 21 2.0 9.0 0.00 0.15 0.00 62 1022.2
20260504024547 55 36 3.0 8.0 0.00 0.15 0.00 62 1022.2
20260504023046 55 24 2.0 9.0 0.00 0.15 0.00 61 1022.4
20260504021545 55 355 3.0 10.0 0.00 0.15 0.00 60 1022.8
20260504020043 54 355 3.0 10.0 0.00 0.20 0.00 62 1022.8
20260504014544 54 197 3.0 12.0 0.00 0.20 0.00 61 1023.2
20260504013042 55 16 2.0 13.0 0.00 0.20 0.00 63 1023.2
20260504011544 53 340 3.0 9.0 0.00 0.20 0.00 62 1023.4
20260504010043 54 318 2.0 10.0 0.00 0.47 0.00 62 1023.4
20260504004536 53 311 3.0 10.0 0.00 0.47 0.00 64 1023.3
20260504003041 52 306 2.0 8.0 0.00 0.47 0.00 66 1023.3
20260504001529 51 324 1.0 5.0 0.00 0.47 0.00 67 1023.4
20260504000025 51 5 2.0 6.0 0.00 0.88 0.00 68 1023.6
20260503234526 50 341 2.0 12.0 0.00 0.88 0.00 69 1023.6
20260503233021 50 350 1.0 5.0 0.00 0.88 0.00 69 1023.7
20260503231521 50 22 3.0 8.0 0.00 0.88 0.00 70 1023.6
20260503230024 49 24 2.0 9.0 0.00 0.98 0.00 70 1023.6
20260503224518 49 27 2.0 6.0 0.00 0.98 0.00 70 1023.6
20260503223023 49 21 2.0 8.0 0.00 0.98 0.00 70 1023.5
20260503221516 49 17 1.0 5.0 0.00 0.98 0.00 70 1023.6
20260503220028 49 23 2.0 6.0 0.00 1.01 0.00 69 1023.2
20260503214510 49 5 2.0 6.0 0.00 1.01 0.00 70 1023.0
20260503213008 48 40 2.0 4.0 0.00 1.01 0.00 70 1023.2
20260503211506 48 34 2.0 6.0 0.00 1.01 0.00 71 1023.3
20260503210012 48 33 2.0 4.0 0.00 1.05 0.00 70 1023.2
20260503204504 48 30 2.0 4.0 0.00 1.05 0.00 70 1023.0
20260503203007 48 32 1.0 5.0 0.00 1.05 0.00 70 1022.7
20260503201503 49 13 1.0 5.0 0.00 1.05 0.00 71 1022.7
20260503200002 49 36 2.0 5.0 0.00 1.11 0.00 72 1022.9
20260503194501 49 32 2.0 5.0 0.00 1.11 0.00 72 1022.5
20260503193101 49 325 2.0 5.0 0.00 1.11 0.00 73 1022.3
20260503191606 48 5 2.0 4.0 0.00 1.11 0.00 75 1022.5
20260503190058 48 5 1.0 4.0 0.00 1.12 0.00 75 1022.7
20260503184621 48 5 2.0 4.0 0.00 1.12 0.00 75 1022.7
20260503183104 48 360 2.0 4.0 0.00 1.12 0.00 75 1023.0
20260503181554 48 15 0.0 0.0 0.00 1.12 0.00 76 1023.0
20260503180052 48 13 0.0 0.0 0.00 1.18 0.00 75 1023.1
20260503174609 48 11 0.0 0.0 0.00 1.18 0.00 76 1023.1
20260503173107 48 11 0.0 0.0 0.00 1.18 0.00 75 1023.2
20260503171550 48 11 0.0 0.0 0.00 1.18 0.00 76 1023.3
20260503081516 52 315 0.0 0.0 0.00 1.21 1.20 66 1022.4
20260503071506 54 330 0.0 0.0 0.00 1.21 1.20 65 1021.9